Time,TemperatureF,DewpointF,PressureIn,WindDirection,WindDirectionDegrees,WindSpeedMPH,WindSpeedGustMPH,Humidity,HourlyPrecipIn,Conditions,Clouds,dailyrainin,SoftwareType,DateUTC
2014-07-31 00:12:00,62.3,62.0,30.01,SW,225,1.0,-999.0,99,-99.99,,,0.00,weatherlink.com 1.10,2014-07-31 04:12:00,
2014-07-31 00:27:00,62.2,62.0,30.02,SW,225,0.0,-999.0,99,-99.99,,,0.00,weatherlink.com 1.10,2014-07-31 04:27:00,
2014-07-31 00:42:00,61.8,62.0,30.02,SW,225,0.0,-999.0,99,-99.99,,,0.00,weatherlink.com 1.10,2014-07-31 04:42:00,
2014-07-31 00:57:00,61.4,61.0,30.02,SW,225,0.0,-999.0,99,-99.99,,,0.00,weatherlink.com 1.10,2014-07-31 04:57:00,
2014-07-31 01:12:00,61.0,61.0,30.02,SW,225,1.0,-999.0,99,-99.99,,,0.00,weatherlink.com 1.10,2014-07-31 05:12:00,
2014-07-31 01:27:00,60.8,61.0,30.02,SW,225,2.0,-999.0,99,-99.99,,,0.00,weatherlink.com 1.10,2014-07-31 05:27:00,
2014-07-31 01:42:00,60.5,60.0,30.02,SW,225,0.0,-999.0,99,-99.99,,,0.00,weatherlink.com 1.10,2014-07-31 05:42:00,
2014-07-31 01:57:00,60.1,60.0,30.02,SW,225,0.0,-999.0,99,-99.99,,,0.00,weatherlink.com 1.10,2014-07-31 05:57:00,
2014-07-31 02:12:00,59.9,60.0,30.02,SW,225,0.0,-999.0,99,-99.99,,,0.00,weatherlink.com 1.10,2014-07-31 06:12:00,
2014-07-31 02:27:00,59.8,60.0,30.01,SW,225,0.0,-999.0,99,-99.99,,,0.00,weatherlink.com 1.10,2014-07-31 06:27:00,
2014-07-31 02:42:00,59.8,60.0,30.02,SW,225,0.0,-999.0,99,-99.99,,,0.00,weatherlink.com 1.10,2014-07-31 06:42:00,
2014-07-31 02:57:00,60.1,60.0,30.02,South,179,1.0,-999.0,100,-99.99,,,0.00,weatherlink.com 1.10,2014-07-31 06:57:00,
2014-07-31 03:12:00,60.2,60.0,30.02,South,179,0.0,-999.0,100,-99.99,,,0.00,weatherlink.com 1.10,2014-07-31 07:12:00,
2014-07-31 03:27:00,60.0,60.0,30.02,South,179,0.0,-999.0,100,-99.99,,,0.00,weatherlink.com 1.10,2014-07-31 07:27:00,
2014-07-31 03:42:00,59.6,60.0,30.02,South,179,0.0,-999.0,100,-99.99,,,0.00,weatherlink.com 1.10,2014-07-31 07:42:00,
2014-07-31 03:57:00,59.0,59.0,30.02,South,179,0.0,-999.0,100,-99.99,,,0.00,weatherlink.com 1.10,2014-07-31 07:57:00,
2014-07-31 04:12:00,58.7,59.0,30.02,South,184,2.0,-999.0,100,-99.99,,,0.00,weatherlink.com 1.10,2014-07-31 08:12:00,
2014-07-31 04:27:00,58.6,59.0,30.02,SW,219,3.0,-999.0,100,-99.99,,,0.00,weatherlink.com 1.10,2014-07-31 08:27:00,
2014-07-31 04:42:00,58.7,59.0,30.02,SW,219,3.0,-999.0,100,-99.99,,,0.00,weatherlink.com 1.10,2014-07-31 08:42:00,
2014-07-31 04:57:00,58.7,59.0,30.02,SW,223,3.0,-999.0,100,-99.99,,,0.00,weatherlink.com 1.10,2014-07-31 08:57:00,
2014-07-31 05:12:00,58.6,59.0,30.02,SW,227,2.0,-999.0,100,-99.99,,,0.00,weatherlink.com 1.10,2014-07-31 09:12:00,
2014-07-31 05:27:00,58.4,58.0,30.02,SW,227,3.0,-999.0,100,-99.99,,,0.00,weatherlink.com 1.10,2014-07-31 09:27:00,
2014-07-31 05:42:00,58.4,58.0,30.02,SW,228,5.0,-999.0,100,-99.99,,,0.00,weatherlink.com 1.10,2014-07-31 09:42:00,
2014-07-31 05:57:00,58.3,58.0,30.03,SW,229,2.0,-999.0,100,-99.99,,,0.00,weatherlink.com 1.10,2014-07-31 09:57:00,
2014-07-31 06:12:00,58.0,58.0,30.03,SW,229,0.0,-999.0,100,-99.99,,,0.00,weatherlink.com 1.10,2014-07-31 10:12:00,
2014-07-31 06:27:00,57.8,58.0,30.03,SW,229,1.0,-999.0,100,-99.99,,,0.00,weatherlink.com 1.10,2014-07-31 10:27:00,
2014-07-31 06:42:00,57.7,58.0,30.03,SW,229,0.0,-999.0,100,-99.99,,,0.00,weatherlink.com 1.10,2014-07-31 10:42:00,
2014-07-31 06:58:00,57.4,57.0,30.04,SW,229,0.0,-999.0,100,-99.99,,,0.00,weatherlink.com 1.10,2014-07-31 10:58:00,
2014-07-31 07:13:00,57.2,57.0,30.04,SW,229,0.0,-999.0,100,-99.99,,,0.00,weatherlink.com 1.10,2014-07-31 11:13:00,
2014-07-31 07:28:00,57.3,57.0,30.04,SW,229,0.0,-999.0,100,-99.99,,,0.00,weatherlink.com 1.10,2014-07-31 11:28:00,
2014-07-31 07:43:00,58.1,58.0,30.04,SW,229,2.0,-999.0,100,-99.99,,,0.00,weatherlink.com 1.10,2014-07-31 11:43:00,
2014-07-31 07:58:00,59.4,59.0,30.04,SW,229,0.0,-999.0,100,-99.99,,,0.00,weatherlink.com 1.10,2014-07-31 11:58:00,
2014-07-31 08:13:00,60.8,61.0,30.04,SW,229,1.0,-999.0,100,-99.99,,,0.00,weatherlink.com 1.10,2014-07-31 12:13:00,
2014-07-31 08:28:00,62.2,62.0,30.04,SW,229,0.0,-999.0,100,-99.99,,,0.00,weatherlink.com 1.10,2014-07-31 12:28:00,
2014-07-31 08:43:00,63.2,63.0,30.04,SW,229,2.0,-999.0,100,-99.99,,,0.00,weatherlink.com 1.10,2014-07-31 12:43:00,
2014-07-31 08:58:00,64.3,64.0,30.05,SW,227,3.0,-999.0,100,-99.99,,,0.00,weatherlink.com 1.10,2014-07-31 12:58:00,
2014-07-31 09:13:00,65.4,65.0,30.05,SW,228,0.0,-999.0,100,-99.99,,,0.00,weatherlink.com 1.10,2014-07-31 13:13:00,
2014-07-31 09:28:00,66.1,66.0,30.05,SW,220,3.0,-999.0,100,-99.99,,,0.00,weatherlink.com 1.10,2014-07-31 13:28:00,
2014-07-31 09:43:00,67.2,67.0,30.05,SW,222,0.0,-999.0,100,-99.99,,,0.00,weatherlink.com 1.10,2014-07-31 13:43:00,
2014-07-31 09:58:00,68.7,68.0,30.05,SW,222,0.0,-999.0,99,-99.99,,,0.00,weatherlink.com 1.10,2014-07-31 13:58:00,
2014-07-31 10:13:00,70.5,69.0,30.05,NW,304,0.0,-999.0,96,-99.99,,,0.00,weatherlink.com 1.10,2014-07-31 14:13:00,
2014-07-31 10:28:00,72.6,70.0,30.05,NW,319,0.0,-999.0,90,-99.99,,,0.00,weatherlink.com 1.10,2014-07-31 14:28:00,
2014-07-31 10:43:00,74.1,69.0,30.05,NW,322,0.0,-999.0,85,-99.99,,,0.00,weatherlink.com 1.10,2014-07-31 14:43:00,
2014-07-31 10:58:00,75.2,70.0,30.05,SW,221,0.0,-999.0,84,-99.99,,,0.00,weatherlink.com 1.10,2014-07-31 14:58:00,
2014-07-31 11:13:00,76.2,70.0,30.05,WSW,247,0.0,-999.0,82,-99.99,,,0.00,weatherlink.com 1.10,2014-07-31 15:13:00,
2014-07-31 11:28:00,76.8,71.0,30.06,WSW,238,0.0,-999.0,82,-99.99,,,0.00,weatherlink.com 1.10,2014-07-31 15:28:00,
2014-07-31 11:43:00,76.9,70.0,30.06,SW,232,0.0,-999.0,79,-99.99,,,0.00,weatherlink.com 1.10,2014-07-31 15:43:00,
2014-07-31 11:58:00,77.2,71.0,30.05,SW,231,1.0,-999.0,80,-99.99,,,0.00,weatherlink.com 1.10,2014-07-31 15:58:00,
2014-07-31 12:13:00,77.8,69.0,30.05,SSW,209,0.0,-999.0,75,-99.99,,,0.00,weatherlink.com 1.10,2014-07-31 16:13:00,
2014-07-31 12:28:00,77.9,69.0,30.05,NW,321,0.0,-999.0,75,-99.99,,,0.00,weatherlink.com 1.10,2014-07-31 16:28:00,
2014-07-31 12:43:00,78.6,70.0,30.05,NNW,333,0.0,-999.0,75,-99.99,,,0.00,weatherlink.com 1.10,2014-07-31 16:43:00,
2014-07-31 12:59:00,79.3,70.0,30.05,SW,225,3.0,-999.0,72,-99.99,,,0.00,weatherlink.com 1.10,2014-07-31 16:59:00,
2014-07-31 13:14:00,79.4,69.0,30.05,NW,315,1.0,-999.0,71,-99.99,,,0.00,weatherlink.com 1.10,2014-07-31 17:14:00,
2014-07-31 13:29:00,79.6,69.0,30.05,NW,311,1.0,-999.0,69,-99.99,,,0.00,weatherlink.com 1.10,2014-07-31 17:29:00,
2014-07-31 13:44:00,80.4,70.0,30.05,NW,313,0.0,-999.0,70,-99.99,,,0.00,weatherlink.com 1.10,2014-07-31 17:44:00,
2014-07-31 13:59:00,79.7,69.0,30.04,WNW,294,0.0,-999.0,70,-99.99,,,0.00,weatherlink.com 1.10,2014-07-31 17:59:00,
2014-07-31 14:14:00,79.8,69.0,30.05,WNW,298,0.0,-999.0,70,-99.99,,,0.00,weatherlink.com 1.10,2014-07-31 18:14:00,
2014-07-31 14:29:00,77.8,69.0,30.05,WSW,240,0.0,-999.0,74,-99.99,,,0.00,weatherlink.com 1.10,2014-07-31 18:29:00,
2014-07-31 14:44:00,78.4,70.0,30.05,SW,232,3.0,-999.0,74,-99.99,,,0.00,weatherlink.com 1.10,2014-07-31 18:44:00,
2014-07-31 14:59:00,79.7,67.0,30.04,WSW,237,0.0,-999.0,66,-99.99,,,0.00,weatherlink.com 1.10,2014-07-31 18:59:00,
2014-07-31 15:14:00,80.6,69.0,30.04,WNW,290,0.0,-999.0,68,-99.99,,,0.00,weatherlink.com 1.10,2014-07-31 19:14:00,
2014-07-31 15:29:00,81.3,69.0,30.04,SW,231,2.0,-999.0,66,-99.99,,,0.00,weatherlink.com 1.10,2014-07-31 19:29:00,
2014-07-31 15:44:00,81.7,69.0,30.03,SW,219,0.0,-999.0,66,-99.99,,,0.00,weatherlink.com 1.10,2014-07-31 19:44:00,
2014-07-31 15:59:00,82.2,70.0,30.03,SW,224,4.0,-999.0,66,-99.99,,,0.00,weatherlink.com 1.10,2014-07-31 19:59:00,
2014-07-31 16:14:00,82.2,69.0,30.02,SW,228,0.0,-999.0,64,-99.99,,,0.00,weatherlink.com 1.10,2014-07-31 20:14:00,